[Iaude] MPEC P73: 2024 PB1 [a=2.19,e=0.46,i=4.2,H=24.2]

mpec at cfa.harvard.edu mpec at cfa.harvard.edu
Tue Aug 6 07:25:26 EDT 2024


M.P.E.C. 2024-P73                                Issued 2024 August 6, 11:24 UT

     The Minor Planet Electronic Circulars contain information on unusual
         minor planets, routine data on comets and natural satellites,
         and occasional editorial announcements.  They are published
    on behalf of Division F of the International Astronomical Union by the
          Minor Planet Center, Smithsonian Astrophysical Observatory,
                          Cambridge, MA 02138, U.S.A.
			  
             Prepared using the Tamkin Foundation Computer Network

                              MPC at CFA.HARVARD.EDU
            URL https://www.minorplanetcenter.net/    ISSN 1523-6714

                                    2024 PB1                                    


Observations:
     K24P01B* C2024 08 03.46181120 50 00.035+06 03 08.19         22.26wXEP073F51
     K24P01B  C2024 08 03.47113520 50 00.640+06 03 22.49         22.21wXEP073F51
     K24P01B  C2024 08 03.48049220 50 01.238+06 03 36.56         22.62wXEP073F51
     K24P01B  C2024 08 03.48972920 50 01.852+06 03 50.44         22.47wXEP073F51
     K24P01B 3C2024 08 04.38972720 51 16.108+06 26 25.62         22.19GVEP073T14
     K24P01B 3C2024 08 04.39093820 51 16.187+06 26 27.47         22.08GVEP073T14
     K24P01B 3C2024 08 04.39214820 51 16.268+06 26 29.31         22.15GVEP073T14
     K24P01B 3C2024 08 04.39335920 51 16.347+06 26 31.10         22.22GVEP073T14
     K24P01B KC2024 08 05.20715420 52 23.63 +06 46 34.8          22.1 GVEP073H21
     K24P01B KC2024 08 05.21293020 52 24.03 +06 46 43.5          22.1 GVEP073H21
     K24P01B KC2024 08 05.21870520 52 24.43 +06 46 52.2          22.0 GVEP073H21
     K24P01B KC2024 08 06.19201320 53 47.43 +07 10 53.8          22.6 GVEP073H21
     K24P01B KC2024 08 06.19490420 53 47.65 +07 10 58.1          22.1 GVEP073H21
     K24P01B KC2024 08 06.19779420 53 47.87 +07 11 02.6          22.3 GVEP073H21
     K24P01B KC2024 08 06.20426120 53 49.075+07 11 14.76         22.0 GVEP073H01
     K24P01B KC2024 08 06.21161320 53 49.618+07 11 25.77         22.1 GVEP073H01
     K24P01B KC2024 08 06.21765020 53 50.067+07 11 34.80         21.9 GVEP073H01
     K24P01B  C2024 08 06.22440420 53 50.568+07 11 44.75         21.9 GVEP073H01

Observer details:
F51 Pan-STARRS 1, Haleakala.  Observers J. Herman, T. Lowe, P. Minguez, A.
    Schultz, I. Smith.  Measurers K. Chambers, T. de Boer, J. Fairlamb, H.
    Gao, M. Huber, C.-C. Lin, E. Magnier, Y. Ramanjooloo, R. Wainscoat, R.
    Weryk.  1.8-m Ritchey-Chretien + CCD.
H01 Magdalena Ridge Observatory, Socorro.  Observers W. H. Ryan, E. V. Ryan.
    Measurer W. H. Ryan.  2.4-m f/8.9 Ritchey-Chretien + CCD.
H21 Astronomical Research Observatory, Westfield.  Observer R. Holmes.
    Measurers T. Linder, R. Holmes.  1.3-m f/4.0 astrograph + CCD.
T14 Canada-France-Hawaii Telescope, Maunakea.  Observers R. Wainscoat, A.
    Acohido, H. Flewelling.  Measurers R. Weryk, R. Wainscoat.  3.6-m f/4.1
    reflector + CCD.

Orbital elements:
2024 PB1                                                 Earth MOID = 0.1858 AU
Epoch 2024 Oct. 17.0 TT = JDT 2460600.5                 Veres                   
M  13.13416              (2000.0)            P               Q                  
n   0.30319424     Peri.  106.45017     +0.94116445     +0.33272666             
a   2.1944318      Node   234.15269     -0.33118674     +0.87322319             
e   0.4632210      Incl.    4.18695     -0.06726673     +0.35605367             
P   3.25           H   24.26          G   0.15           U   9                  
Residuals in seconds of arc
240803 F51  0.0   0.2-    240804 T14  0.1-  0.0     240806 H21  0.1-  0.1-
240803 F51  0.0   0.1+    240804 T14  0.1-  0.0     240806 H21  0.0   0.1+
240803 F51  0.1-  0.1+    240805 H21  0.2+  0.0     240806 H01  0.1+  0.1-
240803 F51  0.1+  0.1+    240805 H21  0.0   0.1+    240806 H01  0.0   0.0
240804 T14  0.1-  0.0     240805 H21  0.2-  0.2+    240806 H01  0.1+  0.0
240804 T14  0.1-  0.0     240806 H21  0.2-  0.1-    240806 H01  0.2+  0.0

Ephemeris:
2024 PB1                 a,e,i = 2.19, 0.46, 4                   q = 1.1779
Date    TT    R. A. (2000) Decl.     Delta      r    Elong.  Phase     V
2024 07 07    20 21 23.6 -05 17 26   0.3378  1.3301   154.8    19.0    23.5
...
2024 07 22    20 35 36.8 +00 43 47   0.2660  1.2662   157.8    17.7    22.8
...
2024 07 30    20 44 23.8 +04 09 32   0.2379  1.2380   157.3    18.5    22.6
...
2024 08 05    20 52 05.8 +06 41 46   0.2211  1.2201   156.2    19.6    22.4
2024 08 06    20 53 30.3 +07 06 31   0.2186  1.2173   156.0    19.8    22.4
2024 08 07    20 54 57.1 +07 31 00   0.2163  1.2147   155.8    20.0    22.4
...
2024 08 13    21 04 34.9 +09 51 07   0.2041  1.2007   154.6    21.2    22.2
...
2024 08 21    21 20 14.1 +12 32 04   0.1928  1.1871   153.3    22.5    22.1
...
2024 09 05    21 57 56.4 +15 29 04   0.1864  1.1780   153.5    22.5    22.0

M. P. C. Staff               (C) Copyright 2024 MPC           M.P.E.C. 2024-P73





More information about the Iaude mailing list